Weather History for Bradford, PA

Change the Weather History Date:

Saturday, March 30, 2013

  Actual Average Record
Temperature  
Mean Temperature 34 °F 37 °F  
Max Temperature 48 °F 47 °F 78 °F (1986)
Min Temperature 21 °F 27 °F 10 °F (1964)
Degree Days  
Heating Degree Days 30 22  
Month to date heating degree days 837  
Since 1 July heating degree days 6407  
Cooling Degree Days 0 0  
Month to date cooling degree days 0  
Year to date cooling degree days 0  
Moisture  
Dew Point 18 °F    
Average Humidity 52    
Maximum Humidity 81    
Minimum Humidity 26    
Precipitation  
Precipitation 0.00 in 0.12 in 1.57 in (1989)
Month to date precipitation 3.25  
Year to date precipitation 8.89  
Sea Level Pressure  
Sea Level Pressure 30.16 in    
Wind  
Wind Speed 2 mph (West)    
Max Wind Speed 7 mph    
Max Gust Speed -    
Visibility 10 miles    
Events      
T = Trace of Precipitation, MM = Missing Value Source: NWS Daily Summary

Daily Weather History Graph

Daily Weather History Graph

Search for Another Location

Airport:

Trip Planner

Search our weather history database for the weather conditions in past years. The results will help you decide how hot, cold, wet, or windy it might be!

Date:

Astronomy

Mar. 30, 2013 Rise Set
Actual Time 7:00 AM EDT 7:38 PM EDT
Civil Twilight 6:32 AM EDT 8:06 PM EDT
Nautical Twilight 5:59 AM EDT 8:39 PM EDT
Astronomical Twilight 5:25 AM EDT 9:13 PM EDT
Moon 11:46 PM EDT (3/30) 8:50 AM EDT (3/30)
Length of Visible Light 13h 33m
Length of Day
12h 37m
Waning Gibbous, 86% of the Moon is Illuminated
Mar 30
Waning Gibbous
Apr 3
Last Quarter
Apr 10
New
Apr 18
First Quarter
Apr 25
Full

Hourly Weather History & Observations

Time (EDT) Temp. Windchill Dew Point Humidity Pressure Visibility Wind Dir Wind Speed Gust Speed Precip Events Conditions
12:53 AM 28.9 °F 25.2 °F 19.0 °F 67% 30.19 in 10.0 mi East 3.5 mph - N/A   Clear
1:53 AM 28.0 °F - 19.0 °F 69% 30.19 in 10.0 mi Calm Calm - N/A   Clear
2:53 AM 28.9 °F 25.2 °F 19.0 °F 67% 30.18 in 10.0 mi West 3.5 mph - N/A   Clear
3:53 AM 25.0 °F - 18.0 °F 75% 30.19 in 10.0 mi Calm Calm - N/A   Clear
4:53 AM 23.0 °F - 17.1 °F 78% 30.19 in 10.0 mi Calm Calm - N/A   Clear
5:53 AM 21.0 °F - 16.0 °F 81% 30.19 in 10.0 mi Calm Calm - N/A   Clear
6:53 AM 21.0 °F - 16.0 °F 81% 30.21 in 10.0 mi Calm Calm - N/A   Clear
7:53 AM 23.0 °F - 18.0 °F 81% 30.22 in 10.0 mi Calm Calm - N/A   Clear
8:53 AM 30.0 °F - 21.9 °F 72% 30.22 in 10.0 mi Calm Calm - N/A   Clear
9:53 AM 37.9 °F - 23.0 °F 55% 30.21 in 10.0 mi Calm Calm - N/A   Clear
10:53 AM 41.0 °F 39.0 °F 21.9 °F 47% 30.21 in 10.0 mi Variable 3.5 mph - N/A   Clear
11:53 AM 43.0 °F 40.3 °F 19.9 °F 40% 30.20 in 10.0 mi NW 4.6 mph - 0.00 in   Partly Cloudy
12:53 PM 44.1 °F 42.5 °F 17.1 °F 34% 30.18 in 10.0 mi Variable 3.5 mph - 0.00 in   Scattered Clouds
1:53 PM 45.0 °F 41.2 °F 17.1 °F 33% 30.16 in 10.0 mi Variable 6.9 mph - N/A   Partly Cloudy
2:53 PM 46.0 °F 43.1 °F 17.1 °F 31% 30.15 in 10.0 mi WNW 5.8 mph - N/A   Clear
3:53 PM 48.0 °F - 16.0 °F 28% 30.13 in 10.0 mi Variable 3.5 mph - N/A   Clear
4:53 PM 48.0 °F - 15.1 °F 27% 30.12 in 10.0 mi Variable 5.8 mph - N/A   Clear
5:53 PM 48.0 °F - 14.0 °F 26% 30.11 in 10.0 mi WSW 5.8 mph - N/A   Clear
6:53 PM 46.9 °F - 15.1 °F 28% 30.10 in 10.0 mi Calm Calm - N/A   Clear
7:53 PM 45.0 °F 43.5 °F 15.1 °F 30% 30.11 in 10.0 mi SW 3.5 mph - N/A   Clear
8:53 PM 37.0 °F - 19.0 °F 48% 30.10 in 10.0 mi Calm Calm - N/A   Clear
9:53 PM 34.0 °F - 18.0 °F 52% 30.09 in 10.0 mi Calm Calm - N/A   Clear
10:53 PM 33.1 °F - 16.0 °F 50% 30.08 in 10.0 mi Calm Calm - N/A   Clear
11:53 PM 32.0 °F - 18.0 °F 56% 30.07 in 7.0 mi Calm Calm - N/A   Clear